Location: Dackenheim
(49.5215°N, 8.1854°E)
Time: 23:50:48
(UTC+00:00)

UNISAT 6 - Visible Passes

Search period start: 13 March 2026 00:00
Search period end: 23 March 2026 00:00
Orbit: 573 x 637 km, 97.8° (Epoch: 13 March)

Date Brightness Start Highest point End Pass type
(mag) Time Alt. Az. Time Alt. Az. Time Alt. Az.
13 Mar ? 02:46:38 11° NNW 02:46:38 11° NNW 02:46:44 10° NNW visible
14 Mar ? 01:22:23 11° NNE 01:22:23 11° NNE 01:22:41 10° NNE visible
14 Mar ? 02:59:14 11° NNW 02:59:14 11° NNW 02:59:23 10° NNW visible
15 Mar ? 01:35:00 13° NNE 01:35:00 13° NNE 01:35:41 10° N visible
15 Mar ? 03:11:51 11° NNW 03:11:51 11° NNW 03:11:58 10° NNW visible
16 Mar ? 01:47:35 16° NNE 01:47:35 16° NNE 01:48:36 10° N visible
16 Mar ? 03:24:26 10° NNW 03:24:26 10° NNW 03:24:28 10° NNW visible
17 Mar ? 02:00:10 18° N 02:00:10 18° N 02:01:27 10° N visible
18 Mar ? 02:12:44 21° N 02:12:44 21° N 02:14:14 10° N visible
19 Mar ? 02:25:18 23° N 02:25:18 23° N 02:26:57 10° N visible
20 Mar ? 01:01:00 12° NE 01:01:00 12° NE 01:02:04 10° NNE visible
20 Mar ? 02:37:51 25° NNW 02:37:51 25° NNW 02:39:38 10° NNW visible
21 Mar ? 01:13:33 15° NE 01:13:33 15° NE 01:15:19 10° NNE visible
21 Mar ? 02:50:23 25° NNW 02:50:23 25° NNW 02:52:15 10° NNW visible
22 Mar ? 01:26:05 19° NE 01:26:05 19° NE 01:28:20 10° NNE visible
22 Mar ? 03:02:55 24° NW 03:02:55 24° NW 03:04:49 10° NNW visible
